Weather in Malkovichi

Belarus     52°31′53″N   26°36′08″E
temp.,
°C
wind,
m/s
gust,
m/s
humid.,
%
clouds,
%
prec.,
mm/h
press.,
hPa
HPBL,
m
5 august, thu
thu500:00+15sse249777 0.4 1014129
03:00+15wsw2398100 0.4 101387
06:00+15nnw229834 0.1 101349
09:00+17nne118633 0.1 1013360
12:00+22nnw0158100 0.0 10121181
15:00+23w0154100 0.0 10111338
18:00+19n3570100 0.0 1010128
21:00+17ne41081100 0.3 1008407
6 august, fri
fri600:00+16ene41392100 0.6 1007421
03:00+16ene51198100 3.6 1003481
06:00+17ese499898 1.4 1002553
09:00+19se3794100 1.5 1000541
12:00+23s366487 0.1 10001319
15:00+20s49855 2.2 1000806
18:00+19sw7107127 0.8 1002909
21:00+14sw5108298 0.8 1003781
7 august, sat
sat700:00+14sw597896 0.0 1003800
03:00+13sw51087100 0.1 1004696
06:00+13sw51086100 0.1 1004755
09:00+13sw51183100 0.1 1006729
12:00+15sw5127695 0.1 1007724
15:00+21wsw71153100 0.1 10081630
18:00+22wsw495626 0.0 10091538
21:00+16wsw26710 0.0 1011116
8 august, sun
sun800:00+14wsw22815 0.0 101234
03:00+14ssw228411 0.0 101316
06:00+13sse228925 0.0 101426
09:00+20sse236828 0.0 1014284
12:00+25sse5750100 0.0 1013988
15:00+29s68395 0.0 10121449
18:00+28s594478 0.0 10121061
21:00+21ssw246911 0.0 101360
9 august, mon
mon900:00+18nw299254 0.0 1015251
03:00+16n239177 0.0 101650
06:00+15n11966 0.4 101611
09:00+18w238999 2.2 1018284
12:00+18nw238714 1.0 1018394
15:00+22nw126547 1.7 10181035
18:00+22nw346989 0.1 1019641
21:00+17n2590100 0.1 101997